www.pogodaiklimat.ru

Погода и климат >> Архив погоды >> Чехия >> Ческе-Будеёвице


ПОГОДА в Ческе-Будеёвице

  • Прогноз погоды в Ческе-Будеёвице
  • Монитор погоды в Ческе-Будеёвице

АРХИВ ПОГОДЫ в Ческе-Будеёвице

Время (UTC), дата Ветер
(напр.,м/с)
 
Видим.   Явления Облачность Т
(С)
Тd
(С)
f
(%)
Тe
(С)
Тes
(С)
Комфортность P
(гПа)
Po
(гПа)
Тmin
(С)
Tmax
(С)
R
(мм)
R24
(мм)
S
(см)
13 11.09 З 2 30 км н/о +19.0 +12.7 67 +21 +21 комфорт 1022.8 976.1
14 11.09 ЮВ 1 35 км н/о +19.5 +12.5 64 +22 +22 комфорт 1022.2 975.6
15 11.09 З 2 35 км н/о +19.9 +13.2 65 +22 +22 комфорт 1022.3 975.8
16 11.09 С 1 35 км н/о +19.1 +12.8 67 +21 +21 комфорт 1022.8 976.1
17 11.09 СЗ 2 35 км н/о +18.2 +13.1 72 +19 +19 1023.1 976.3
18 11.09 СЗ 1 35 км н/о +16.9 +13.2 79 +18 +18 1024.1 977.0 +20.7
19 11.09 З 1 35 км н/о +16.0 +13.4 85 +17 +17 1024.9 977.7
20 11.09 ЮЗ 1 30 км н/о +14.4 +13.1 92 +15 +15 1025.7 978.2
21 11.09 Ю 1 24 км н/о +13.5 +12.9 96 +14 +14 1026.3 978.6
22 11.09 Ю 1 20 км н/о +12.8 +12.2 96 +13 +13 1026.8 978.9
23 11.09 ЮЗ 1 17 км н/о +12.5 +11.9 96 +12 +12 1027.3 979.4
00 12.09 Ю 1 30 км н/о +12.4 +11.7 95 +12 +12 1027.4 979.4
01 12.09 Ю 2 27 км н/о +11.6 +10.9 95 +10 +10 1027.9 979.8
02 12.09 Ю 1 20 км н/о +10.5 +10.0 97 +10 +10 1028.7 980.3
03 12.09 ЮЗ 1 21 км н/о +9.9 +9.4 97 +9 +9 1028.9 980.4
04 12.09 Ю 1 27 км н/о +9.4 +9.0 97 +9 +9 1029.3 980.7
05 12.09 Ю 1 27 км н/о +9.6 +9.0 96 +9 +9 1029.9 981.3
06 12.09 Ю 1 27 км н/о +11.6 +10.2 91 +11 +11 1030.1 981.9 +9.2
07 12.09 20 км н/о +14.6 +10.2 75 1030.5 982.7
08 12.09 35 км н/о +18.4 +10.7 61 1030.0 982.9
09 12.09 З 2 29 км {дымка} н/о +17.5 +9.0 57 +18 +18 1030.6 983.3
10 12.09 Ю 2 30 км н/о +17.6 +10.1 61 +18 +18 1030.7 983.4
11 12.09 СВ 1 30 км н/о +19.5 +10.6 56 +22 +22 комфорт 1030.2 983.2
12 12.09 нст 1 35 км {дымка} н/о +20.6 +11.2 55 +24 +24 комфорт 1029.9 983.1
13 12.09 Ю 1 35 км н/о +21.7 +11.4 52 +24 +24 комфорт 1029.3 982.7
14 12.09 Ю 1 35 км н/о +21.9 +12.3 54 +24 +24 комфорт 1029.0 982.5
15 12.09 ЮЗ 2 35 км {дымка} н/о +21.8 +11.6 52 +24 +24 комфорт 1028.8 982.3
16 12.09 Ю 1 35 км н/о +21.2 +12.2 56 +23 +23 комфорт 1028.7 982.1
17 12.09 Ю 2 35 км н/о +20.2 +12.3 60 +23 +23 комфорт 1029.1 982.3
18 12.09 З 1 35 км {дымка} н/о +18.9 +11.9 64 +21 +21 комфорт 1029.6 982.6 +22.9
19 12.09 ЮЗ 1 35 км н/о +16.2 +11.9 76 +17 +17 1030.6 983.1
20 12.09 ЮВ 1 35 км н/о +14.9 +12.1 83 +15 +15 1031.0 983.3
21 12.09 ЮВ 2 35 км н/о +13.9 +11.7 87 +13 +13 1031.3 983.4
22 12.09 Ю 2 23 км н/о +14.7 +11.8 83 +14 +14 1031.2 983.4
23 12.09 ЮВ 2 35 км н/о +15.1 +12.0 82 +15 +15 1031.2 983.5
00 13.09 Ю 2 35 км н/о +14.5 +12.0 85 +14 +14 1031.1 983.3
01 13.09 Ю 2 35 км н/о +14.7 +11.8 83 +14 +14 1030.9 983.2
02 13.09 ЮВ 2 35 км н/о +14.9 +11.7 81 +15 +15 1030.6 982.9
03 13.09 Ю 2 35 км н/о +14.9 +11.9 82 +15 +15 1030.4 982.7
04 13.09 Ю 2 35 км н/о +14.4 +11.7 84 +14 +14 1030.8 983.0
05 13.09 Ю 1 17 км н/о +13.7 +11.5 87 +14 +14 1031.0 983.1
06 13.09 Ю 1 35 км н/о +15.0 +12.0 82 +16 +16 1030.9 983.2 +13.6
07 13.09 ЮВ 1 35 км н/о +18.1 +12.6 70 +19 +19 1030.7 983.5
08 13.09 ЮВ 1 35 км н/о +21.7 +13.5 60 +24 +24 комфорт 1029.8 983.2
09 13.09 СЗ 2 35 км {дымка} н/о +22.4 +13.4 57 +25 +25 комфорт 1029.4 983.0
10 13.09 СЗ 3 30 км н/о +23.2 +13.2 53 +26 +26 жарко 1029.2 982.9
11 13.09 СЗ 2 35 км н/о +23.3 +12.3 50 +26 +26 жарко 1029.2 982.9
12 13.09 С 3 35 км {дымка} н/о +22.9 +13.1 54 +26 +26 жарко 1029.2 982.8
13 13.09 СЗ 5 35 км н/о +23.2 +12.5 51 +26 +26 жарко 1029.2 982.9
14 13.09 СЗ 4 35 км н/о +22.4 +12.8 55 +25 +25 комфорт 1029.4 982.9
15 13.09 СЗ 2 35 км н/о +21.7 +13.5 60 +24 +24 комфорт 1029.2 982.7
16 13.09 СЗ 1 35 км н/о +21.4 +13.7 61 +24 +24 комфорт 1029.1 982.5
17 13.09 СЗ 1 35 км н/о +20.1 +13.8 67 +23 +23 комфорт 1029.4 982.6
18 13.09 СЗ 1 28 км н/о +17.8 +13.9 78 +19 +19 1030.1 982.9 +24.6
19 13.09 ЮЗ 1 35 км н/о +16.4 +13.9 85 +17 +17 1030.8 983.4
20 13.09 Ю 1 35 км н/о +15.3 +13.6 90 +16 +16 1031.1 983.5
21 13.09 Ю 1 35 км н/о +14.6 +13.4 93 +15 +15 1031.5 983.7
22 13.09 Ю 1 30 км н/о +13.9 +13.0 94 +14 +14 1031.7 983.8
23 13.09 ЮВ 1 35 км н/о +13.6 +12.7 94 +14 +14 1031.9 983.9
00 14.09 Ю 1 30 км н/о +13.5 +12.6 94 +14 +14 1031.9 983.9
01 14.09 ЮЗ 1 35 км н/о +14.3 +13.0 92 +15 +15 1031.9 984.1
02 14.09 штиль 0 35 км н/о +14.4 +13.0 91 +14 +14 1031.8 984.0
03 14.09 СЗ 1 35 км н/о +15.1 +13.7 91 +16 +16 1031.9 984.2
04 14.09 СЗ 1 35 км н/о +15.0 +13.1 88 +15 +15 1032.2 984.5
05 14.09 СЗ 1 35 км н/о +15.3 +12.7 84 +16 +16 1032.2 984.5
06 14.09 С 1 35 км н/о +15.4 +12.2 81 +16 +16 1032.8 985.1 +13.3
07 14.09 С 2 30 км н/о +15.8 +12.2 79 +16 +16 1033.2 985.5
08 14.09 СВ 2 35 км н/о +16.7 +12.1 74 +17 +17 1032.9 985.4
09 14.09 В 2 35 км н/о +18.7 +9.5 55 +20 +20 1032.3 985.1
10 14.09 35 км н/о +19.2 +9.4 53 1031.6 984.5
11 14.09 СВ 3 35 км н/о +18.2 +10.2 60 +19 +19 1031.8 984.5
12 14.09 СВ 3 35 км н/о +18.8 +10.1 57 +20 +20 1031.4 984.3
13 14.09 СВ 3 28 км н/о +20.1 +10.3 53 +22 +22 комфорт 1030.5 983.6
14 14.09 В 1 35 км н/о +21.0 +11.1 53 +24 +24 комфорт 1029.7 983.0
15 14.09 В 2 35 км н/о +19.8 +10.4 55 +22 +22 комфорт 1029.0 982.1
16 14.09 В 2 35 км н/о +19.4 +10.0 55 +21 +21 комфорт 1028.8 981.9
17 14.09 В 2 35 км н/о +18.7 +10.0 57 +20 +20 1028.9 981.9
18 14.09 В 2 35 км н/о +17.8 +10.8 64 +18 +18 1029.2 982.0 +21.3
19 14.09 В 1 35 км н/о +15.0 +10.9 76 +16 +16 1029.9 982.2
20 14.09 СЗ 1 24 км н/о +13.9 +11.1 83 +14 +14 1030.4 982.5
21 14.09 ЮЗ 2 30 км н/о +13.8 +11.7 87 +13 +13 1030.1 982.2
22 14.09 СЗ 1 30 км н/о +14.0 +11.5 85 +14 +14 1029.8 982.0
23 14.09 Ю 1 30 км н/о +12.6 +11.0 90 +13 +13 1029.6 981.6
00 15.09 Ю 1 22 км н/о +11.6 +10.7 94 +11 +11 1029.1 980.9
01 15.09 ЮВ 2 26 км н/о +11.0 +10.3 95 +10 +10 1028.9 980.6
02 15.09 Ю 2 30 км н/о +11.0 +10.1 94 +10 +10 1028.4 980.1
03 15.09 Ю 1 23 км н/о +10.1 +9.3 95 +10 +10 1028.1 979.7
04 15.09 Ю 2 21 км н/о +9.6 +8.8 95 +8 +8 1027.9 979.4
05 15.09 Ю 2 26 км н/о +9.4 +8.6 95 +8 +8 1027.7 979.2
06 15.09 Ю 2 30 км н/о +10.6 +9.2 91 +9 +9 1027.4 979.1 +9.3
07 15.09 Ю 2 35 км н/о +14.2 +10.7 79 +14 +14 1026.4 978.8
08 15.09 35 км н/о +16.5 +11.3 71 1025.8 978.6
09 15.09 ЮВ 1 35 км н/о +19.6 +13.1 66 +22 +22 комфорт 1025.1 978.4
10 15.09 В 1 35 км н/о +21.7 +12.6 56 +24 +24 комфорт 1023.9 977.6
11 15.09 Ю 1 30 км н/о +22.8 +12.3 52 +26 +26 жарко 1022.9 976.8
12 15.09 В 2 35 км {дымка} н/о +23.8 +13.0 51 +26 +26 жарко 1021.9 976.0
13 15.09 ЮВ 2 35 км н/о +25.4 +12.8 46 +27 +27 жарко 1020.8 975.2
14 15.09 Ю 3 35 км н/о +25.6 +12.4 44 +27 +27 жарко 1019.8 974.3
15 15.09 Ю 3 35 км {дымка} н/о +25.1 +11.6 43 +27 +27 жарко 1019.4 973.8
16 15.09 Ю 3 35 км н/о +24.1 +11.5 45 +26 +26 жарко 1019.0 973.3
17 15.09 ЮЗ 2 35 км н/о +21.8 +12.1 54 +24 +24 комфорт 1019.3 973.2
18 15.09 ЮЗ 1 35 км {дымка} н/о +19.0 +12.3 65 +21 +21 комфорт 1020.1 973.5 +26.0
19 15.09 Ю 1 35 км н/о +17.1 +12.3 73 +18 +18 1020.8 973.9
20 15.09 ЮВ 2 35 км н/о +16.4 +12.0 75 +17 +17 1021.0 974.0
21 15.09 ЮВ 2 35 км н/о +15.1 +11.7 80 +15 +15 1021.2 974.0
22 15.09 Ю 2 35 км н/о +14.9 +11.6 81 +15 +15 1021.1 973.8
23 15.09 Ю 1 35 км н/о +14.6 +11.7 83 +15 +15 1020.9 973.6
00 16.09 ЮВ 2 35 км н/о +14.6 +11.7 83 +14 +14 1020.7 973.4
01 16.09 Ю 2 35 км н/о +14.1 +11.7 85 +14 +14 1020.6 973.2
02 16.09 Ю 1 30 км н/о +13.0 +11.4 90 +13 +13 1020.6 973.1
03 16.09 Ю 2 30 км н/о +12.6 +11.3 92 +12 +12 1020.4 972.8
04 16.09 Ю 2 26 км н/о +12.1 +10.9 92 +11 +11 1020.0 972.3
05 16.09 ЮВ 1 25 км н/о +11.3 +10.4 94 +11 +11 1020.4 972.6
06 16.09 З 1 27 км н/о +12.7 +11.3 91 +13 +13 1020.5 972.9 +11.1
07 16.09 ЮЗ 1 21 км н/о +17.2 +12.5 74 +18 +18 1020.0 973.2
08 16.09 З 1 35 км н/о +19.4 +11.3 59 +22 +22 комфорт 1019.8 973.3
09 16.09 нст 1 35 км н/о +21.0 +8.2 44 +23 +23 комфорт 1019.3 973.0
10 16.09 СЗ 1 35 км н/о +21.4 +8.9 45 +23 +23 комфорт 1018.4 972.2
11 16.09 В 1 35 км н/о +23.4 +9.7 42 +25 +25 комфорт 1017.5 971.7
12 16.09 СЗ 1 35 км {дымка} н/о +23.8 +11.9 47 +25 +25 комфорт 1016.6 970.9
13 16.09 35 км н/о +23.2 +10.7 45 1016.0 970.2
14 16.09 СЗ 1 35 км н/о +23.2 +12.2 50 +26 +26 жарко 1015.7 970.0
15 16.09 СЗ 1 35 км н/о +23.0 +11.3 48 +25 +25 комфорт 1015.2 969.5
16 16.09 СЗ 1 35 км н/о +21.8 +11.5 52 +24 +24 комфорт 1015.4 969.5
17 16.09 З 1 30 км н/о +20.4 +13.1 63 +24 +24 комфорт 1015.6 969.5
18 16.09 ЮЗ 1 35 км н/о +19.2 +12.2 64 +21 +21 комфорт 1015.8 969.5 +24.8
19 16.09 З 1 35 км н/о +18.7 +10.9 60 +20 +20 1016.5 970.0
20 16.09 З 3 35 км н/о +19.1 +10.3 57 +20 +20 1016.5 970.1
21 16.09 З 3 35 км слаб. ливневой дождь н/о +18.4 +11.0 62 +19 +19 1016.3 969.8
22 16.09 СЗ 3 35 км {ливн. осадки} н/о +18.4 +10.6 60 +19 +19 1015.9 969.4
23 16.09 СЗ 1 35 км н/о +17.5 +10.9 65 +19 +19 1015.8 969.2
00 17.09 СЗ 2 35 км {ливн. осадки, дождь} н/о +18.0 +10.2 60 +19 +19 1015.5 969.0 0.0
01 17.09 СЗ 1 35 км н/о +16.7 +11.6 72 +18 +18 1015.6 968.9
02 17.09 СЗ 1 30 км слаб. ливневой дождь н/о +15.8 +12.5 81 +16 +16 1015.9 969.0
03 17.09 СЗ 3 35 км в посл. час дождь {ливн. осадки} н/о +15.3 +12.5 83 +15 +15 1016.0 969.1
04 17.09 СЗ 2 30 км слаб. ливневой дождь н/о +14.7 +12.9 89 +14 +14 1016.2 969.2
05 17.09 СЗ 1 35 км {ливн. осадки} н/о +14.7 +13.1 90 +15 +15 1016.7 969.6
06 17.09 С 2 17 км {ливн. осадки, дождь} н/о +14.0 +12.6 91 +13 +13 1016.9 969.7 +13.9 0.3
07 17.09 СВ 2 35 км н/о +13.4 +11.0 85 +13 +13 1017.4 970.1
08 17.09 СВ 3 9000 м слаб. ливневой дождь {морось} н/о +11.9 +10.4 91 +10 +10 1018.2 970.6
09 17.09 СВ 3 24 км слаб. ливневой дождь {морось} н/о +11.6 +9.8 89 +10 +10 1018.4 970.7
10 17.09 штиль 0 20 км в посл. час дождь {ливн. осадки} н/о +12.7 +10.4 86 +12 +12 1017.9 970.4
11 17.09 СЗ 1 35 км н/о +13.8 +11.4 85 +14 +14 1017.3 970.0
12 17.09 З 1 35 км {ливн. осадки, дождь} н/о +14.5 +11.3 81 +15 +15 1016.5 969.4 0.2
13 17.09 З 1 35 км н/о +16.5 +11.9 74 +17 +17 1015.4 968.7
14 17.09 З 2 29 км н/о +17.2 +12.0 71 +18 +18 1014.6 968.0
15 17.09 З 4 35 км {дымка} н/о +18.6 +8.2 51 +19 +19 1014.1 967.7
16 17.09 СЗ 4 35 км н/о +18.2 +7.6 50 +18 +18 1014.3 967.8
17 17.09 З 2 35 км н/о +16.1 +7.5 57 +16 +16 1014.9 968.1
18 17.09 З 2 35 км {дымка} н/о +14.5 +7.1 61 +14 +14 1015.9 968.8 +19.1 0.2
19 17.09 З 3 35 км н/о +13.8 +7.0 64 +13 +13 1016.8 969.5
20 17.09 З 2 35 км н/о +13.5 +7.2 66 +13 +13 1017.6 970.2
21 17.09 З 2 35 км н/о +13.2 +7.3 67 +13 +13 1018.1 970.6
22 17.09 СЗ 3 35 км н/о +13.1 +5.4 60 +12 +12 1018.8 971.3
23 17.09 СЗ 5 35 км н/о +12.8 +4.7 58 +11 +11 1019.5 971.9
00 18.09 СЗ 4 35 км н/о +11.8 +3.9 58 +10 +10 1020.5 972.7
01 18.09 СЗ 3 35 км н/о +10.2 +3.5 63 +8 +8 1021.1 973.0
02 18.09 СЗ 4 35 км н/о +9.6 +4.1 69 +7 +7 1021.9 973.6
03 18.09 СЗ 4 35 км н/о +9.0 +3.2 67 +6 +6 1022.5 974.1
04 18.09 СЗ 2 35 км н/о +8.1 +2.9 70 +6 +6 1023.4 974.8
05 18.09 З 2 35 км н/о +8.0 +2.9 70 +6 +6 1024.0 975.4
06 18.09 З 3 35 км н/о +9.2 +3.0 65 +7 +7 1024.2 975.8 +7.7
07 18.09 СЗ 3 28 км н/о +11.2 +3.3 58 +10 +10 1024.4 976.3
08 18.09 СЗ 3 35 км н/о +12.0 +2.0 50 +11 +11 1024.7 976.7
09 18.09 СЗ 3 35 км н/о +13.1 +2.1 47 +12 +12 1024.4 976.6
10 18.09 СЗ 2 29 км н/о +14.0 +1.9 44 +14 +14 1024.4 976.7
11 18.09 СЗ 3 35 км н/о +14.6 +1.7 42 +14 +14 1024.0 976.4
12 18.09 СЗ 4 35 км н/о +15.2 +1.5 39 +14 +14 1023.4 976.0

 

Местоположение метеостанции Ческе-Будеёвице (Чехия): широта 48.95 долгота 14.47 высота над уровнем моря 396 м.

В архиве по умолчанию представлена погода в Ческе-Будеёвице за последнюю неделю. Архивные данные за месяц целиком и за предыдущие месяцы, начиная с января 2011 года, Вы можете получить, выбрав интересующий диапазон дат из раскрывающегося списка и нажав кнопку "Ввод!".


*Определитесь, кто Вы:
робот инопланетянин человек

Внимание! Время в таблицах - всемирное. Для получения местного времени необходимо прибавить поправку, которая равна 1 ч.

Смотрите также архив погоды в соседних городах и на ближайших метеорологических станциях:

Погода в Темелине (Чехия) (30 км)
Погода в Личау (Австрия) (41 км)
Погода в Вайтре (Австрия) (41 км)
Погода в Рорбахе (Австрия) (55 км)
Погода в Чуранове (Чехия) (63 км)
Погода в Цветле (Австрия) (65 км)
Погода в Аллентштайге (Австрия) (72 км)
Погода в Бернкопфе (Австрия) (73 км)
Погода в Линце город (Австрия) (74 км)
Погода в Коцеловице (Чехия) (74 км)

Пояснения к столбцам:

Ветер - указаны скорость ветра в м/с - средняя за 10 мин, порывы в срок и между сроками (в фигурных скобках) и направление, откуда дует ветер: С - северный, СВ - северо-восточный, В - восточный, ЮВ - юго-восточный, Ю - южный, ЮЗ - юго-западный, З - западный, СЗ - северо-западный.
Видимость - горизонтальная дальность видимости в метрах или километрах. При видимости от 1 до 10 км при отсутствии осадков обычно наблюдается дымка, при ухудшении видимости до 1 км и менее - туман. В сухую погоду видимость может ухудшаться дымом, пылью или мглою.
Явления - указаны атмосферные явления, наблюдавшиеся в срок или в последний час перед сроком; фигурными скобками обозначены явления, наблюдавшиеся между сроками (за 1-3 часа до срока); квадратными скобками обозначены град или гололедные отложения с указанием их диаметра в мм.
Облачность - указаны через наклонную черту общая и нижняя облачность в баллах и высота нижней границы облаков в метрах; квадратными скобками обозначены формы облаков: Ci - перистые, Cs - перисто-слоистые, Cc - перисто-кучевые, Ac - высококучевые, As - высокослоистые, Sc - слоисто-кучевые, Ns - слоисто-дождевые, Cu - кучевые, Cb - кучево-дождевые. Подробнее классификацию облаков см. в Атласе облаков (PDF).
T - Температура воздуха - температура, измеренная на высоте 2 м над землей.
Td - Температура точки росы - температура, при понижении до которой содержащийся в воздухе водяной пар достигнет насыщения.
f - Относительная влажность воздуха - влажноcть воздуха, измеренная на высоте 2 м над землей.
Te - Эффективная температура - температура, которую ощущает одетый по сезону человек в тени. Характеристика душности погоды. При расчете учитывается влияние влажности воздуха и скорости ветра на теплоощущения человека.
Tes - Эффективная температура на солнце - температура, которую ощущает человек, с поправкой на солнечный нагрев. Характеристика знойности погоды. Зависит от высоты солнца над горизонтом, облачности и скорости ветра. Ночью, в пасмурную погоду, а также при ветре 12 м/с и более поправка равна нулю.
P - Атмосферное давление - приведенное к уровню моря атмосферное давление.
Po - Атмосферное давление - измеренное на уровне метеостанции атмосферное давление.
Tmin - Минимальная температура - минимум температуры воздуха на высоте 2 м над землей.
Tmax - Максимальная температура - максимум температуры воздуха на высоте 2 м над землей.
R - Количество осадков - Количество выпавших осадков за период времени, мм. При наведении курсора мыши на число - период времени, за который выпало указанное количество осадков.
R24 - Количество осадков - Количество выпавших осадков за 24 часа, мм.
S - Снежный покров - Высота снежного покрова, см. При наведении курсора мыши на число - состояние снежного покрова и степень покрытия местности в баллах.